Temperature
17 17 17 17 16 16 16 16 16 15 15 15 15 15 15 15 15 15 14 14 14 14 14 14 14 14 14 14 14 14 13 13 13 13 12 12 12 12 12 12 12 12 12
18 17 17 17 17 16 16 16 16 15 15 15 15 15 15 15 15 14 14 14 14 14 14 14 14 14 14 14 14 13 13 13 13 13 12 12 12 12 12 12 12 12 12
18 17 17 17 17 17 16 16 16 16 15 15 15 15 15 15 15 14 14 14 14 14 14 13 13 13 13 13 13 13 13 13 12 12 12 12 12 12 12 12 12 12 12
18 18 17 17 17 17 16 16 16 16 16 15 15 15 15 15 15 14 14 14 14 14 13 13 13 13 13 13 13 13 13 12 12 12 12 12 11 12 11 11 11 11 11
18 18 18 17 17 17 16 16 16 16 16 15 15 15 15 15 15 15 14 14 14 14 13 13 13 13 13 13 13 12 12 12 12 12 11 11 11 11 11 11 11 11 11
18 18 18 18 17 17 17 16 16 16 16 15 15 15 15 15 15 15 14 14 14 13 13 13 13 13 13 13 13 13 12 12 11 11 11 11 11 11 11 11 11 10 10
18 18 18 18 17 17 17 16 16 16 16 16 15 15 15 15 15 15 14 14 13 13 13 13 13 13 13 12 12 12 12 12 12 11 11 11 11 11 10 10 10 10 10
18 18 18 18 17 17 17 16 16 16 16 16 15 15 15 15 15 14 14 14 13 13 13 13 12 12 12 12 12 12 12 12 11 11 11 11 11 10 10 10 10 10 10
18 18 18 18 17 17 17 16 16 16 16 15 15 15 15 15 15 14 14 13 13 13 13 13 12 12 12 12 12 11 11 11 11 11 11 11 11 11 10 10 10 9 9
18 18 18 18 17 17 17 16 16 16 16 15 15 15 15 14 14 14 14 13 13 13 13 13 12 12 12 12 11 11 11 11 11 11 11 11 10 10 10 10 9 9 9
18 18 18 18 17 17 17 16 16 16 16 15 15 15 14 14 14 14 14 13 13 13 12 12 12 12 12 12 11 11 11 11 10 10 10 10 10 10 10 10 9 9 8
18 18 17 17 17 17 16 16 16 16 15 15 15 15 14 14 14 14 14 13 13 12 12 12 12 12 12 11 11 11 11 10 10 10 10 9 9 9 9 9 9 9 8
18 17 17 17 17 16 16 16 16 15 15 15 15 15 14 14 14 14 13 13 13 12 12 12 12 11 11 11 11 11 10 10 10 9 9 9 9 9 9 9 9 8 8
17 17 17 17 16 16 16 16 15 15 15 15 15 14 14 14 14 14 13 13 13 12 12 12 11 11 11 10 10 10 10 10 9 9 9 9 8 8 8 8 8 8 7
17 17 16 16 16 16 16 16 15 15 15 15 15 14 14 14 14 13 13 13 12 12 12 11 11 11 11 10 10 10 10 9 9 9 8 8 8 8 8 8 7 7 7
16 16 16 16 16 16 15 15 15 15 15 14 14 14 14 13 13 13 13 12 12 12 11 11 11 11 10 10 10 10 9 9 9 8 8 8 8 7 7 7 7 7 7
15 15 15 15 15 15 15 15 15 14 14 14 14 14 13 13 13 12 12 12 11 11 11 10 10 10 10 10 10 9 9 9 8 8 8 8 7 7 7 7 6 6 6
15 15 15 15 15 14 14 14 14 14 14 13 13 13 13 13 12 12 12 11 11 11 10 10 10 10 10 9 9 9 9 8 8 8 7 7 7 7 6 6 6 6 6
14 14 14 14 14 14 14 13 13 13 13 13 13 13 12 12 12 12 11 11 11 10 10 10 10 10 9 9 9 9 8 8 7 7 7 7 6 6 6 6 6 5 5
14 14 14 13 13 13 13 13 12 12 12 12 12 12 12 11 11 11 11 10 10 10 10 9 9 9 9 9 8 8 8 7 7 7 7 6 6 6 6 5 5 5 5
13 13 13 12 12 12 12 12 12 11 11 11 11 11 11 11 10 10 10 10 10 9 9 9 9 8 8 8 8 8 7 7 7 6 6 6 6 5 5 5 5 5 4
12 12 12 12 11 11 11 11 11 11 10 10 10 10 10 10 9 9 9 9 9 9 9 8 8 8 8 8 7 7 7 7 6 6 6 5 5 5 5 5 4 4 4
11 11 11 11 11 11 10 10 10 10 10 9 9 9 9 9 9 9 8 8 8 8 8 8 8 7 7 7 7 7 6 6 6 6 5 5 5 5 4 4 4 4 4
10 10 10 10 10 9 9 9 9 9 9 9 9 8 8 8 8 8 8 8 7 7 7 7 7 7 7 7 6 6 6 6 5 5 5 5 4 4 4 4 4 3 3
10 10 9 9 9 9 8 8 8 8 8 8 8 8 7 7 7 7 7 7 7 7 7 6 6 6 6 6 6 6 6 5 5 5 4 4 4 4 3 3 3 3 3
9 9 8 8 8 8 8 7 7 7 7 7 7 7 6 6 6 6 6 6 6 6 6 6 6 6 6 5 5 5 5 5 5 4 4 3 3 3 3 3 2 2 2
Wind_Speed
10 9 8 7 6 6 5 4 4 4 4 4 3 3 3 3 4 3 3 3 3 4 4 4 4 4 3 2 2 2 2 2 2 2 2 2 3 4 5 5 6 6 10
10 9 9 8 7 7 6 6 5 5 4 4 4 3 3 3 3 3 3 3 3 3 3 3 3 3 3 2 2 2 2 1 1 2 2 2 2 3 4 4 4 5 6
10 10 9 9 8 8 7 7 6 6 5 5 4 3 3 2 2 2 2 2 2 2 2 2 2 2 2 2 2 2 2 2 1 1 1 1 1 2 2 3 3 3 4
11 10 10 9 9 8 7 7 7 6 6 5 4 4 3 3 2 2 2 2 2 2 2 2 1 2 1 1 1 2 1 1 1 1 1 1 0 1 1 2 2 2 2
12 11 11 10 9 8 8 8 7 6 6 5 5 4 3 3 2 2 2 2 2 2 2 2 2 3 5 3 1 1 1 1 1 1 0 0 0 1 2 2 2 2 2
12 12 10 10 9 9 9 8 7 7 6 6 5 5 4 3 3 1 2 3 2 3 2 2 3 3 3 2 2 2 2 1 1 1 1 1 1 1 2 3 3 3 3
12 11 11 10 10 10 9 9 8 8 7 6 6 5 5 4 6 4 3 2 2 2 2 2 2 2 2 1 3 4 1 1 3 3 2 1 2 2 3 3 3 4 4
12 12 11 11 11 10 9 9 9 8 8 7 6 6 5 4 6 5 5 4 3 2 3 3 3 3 2 1 1 2 1 1 2 3 2 2 3 3 3 4 5 5 5
12 12 12 12 11 11 10 10 9 8 8 7 7 7 6 6 7 6 6 4 4 4 3 3 3 3 3 2 3 3 2 2 1 2 3 3 3 4 5 4 4 5 5
11 11 11 12 12 12 11 10 9 8 8 7 7 7 7 6 8 8 8 5 5 4 4 4 3 3 3 4 5 4 4 4 3 3 4 6 6 6 7 7 5 6 6
9 10 10 11 11 11 10 9 8 8 8 8 8 7 7 7 8 9 8 6 5 5 5 5 4 5 5 5 6 6 4 4 5 5 5 5 5 5 5 6 6 6 7
8 9 9 10 9 9 9 9 8 9 8 8 8 7 6 7 6 8 10 9 7 7 6 5 4 6 7 7 7 4 4 5 5 5 5 5 5 5 5 6 7 8 9
8 8 8 9 9 9 10 9 8 8 7 7 7 7 6 6 6 8 10 11 10 8 6 4 3 6 7 7 8 7 7 6 6 6 7 6 6 6 6 6 8 9 10
8 8 8 8 8 8 7 8 8 8 8 8 8 7 7 6 6 6 7 7 9 9 7 6 7 7 8 7 6 7 7 7 7 8 7 7 7 6 7 7 7 7 8
7 6 6 7 7 7 7 6 8 8 7 8 7 7 7 7 7 7 7 6 6 7 7 6 6 6 7 7 7 7 7 8 8 8 8 8 8 8 8 7 8 8 9
6 6 5 5 5 5 5 5 3 4 3 5 5 6 6 5 3 7 8 8 7 6 6 7 8 8 8 8 8 8 8 9 9 9 9 9 9 9 9 8 8 9 10
5 5 4 4 5 5 5 5 4 4 5 6 7 7 8 5 5 7 8 8 9 9 8 9 9 9 9 9 9 9 9 9 9 9 9 10 9 9 9 9 9 10 11
3 3 3 3 4 4 4 4 4 4 4 4 6 9 9 9 8 8 8 7 7 8 9 10 10 10 9 9 9 9 9 9 9 9 10 10 10 10 10 11 11 12 12
3 2 2 2 2 3 3 3 3 4 4 4 3 4 6 7 8 8 9 7 8 8 9 10 10 10 10 10 9 9 10 10 10 10 10 10 10 10 11 11 12 13 12
2 3 2 2 2 2 2 2 2 3 3 3 3 3 2 3 4 5 6 7 8 8 9 9 9 10 9 9 9 9 10 10 10 10 10 10 10 11 12 13 12 12 12
2 2 2 1 1 1 1 2 2 2 3 3 3 2 3 4 5 6 6 7 7 8 8 8 9 9 9 9 9 10 11 10 10 10 10 10 11 11 12 12 12 13 12
2 1 1 1 0 1 1 2 2 3 3 4 4 3 4 6 6 6 7 7 7 8 8 8 8 8 8 9 9 10 11 11 11 10 11 11 11 12 12 12 12 12 12
1 1 1 0 0 0 1 2 2 3 4 4 4 4 4 5 6 7 7 7 7 7 7 8 9 9 9 10 11 10 11 11 10 11 11 11 11 12 12 13 14 14 13
1 1 0 0 1 1 2 2 3 3 4 4 5 5 5 6 7 8 8 8 8 8 8 9 10 12 13 11 11 12 13 12 12 12 14 13 13 12 12 12 13 14 13
1 1 1 1 1 2 2 3 3 4 4 5 5 6 6 7 7 8 8 8 9 9 10 11 10 11 13 15 14 13 12 13 13 13 12 12 13 13 13 13 12 12 12
2 1 1 2 2 2 3 3 4 4 5 5 6 6 7 7 7 8 8 8 9 9 10 10 12 13 14 14 15 14 14 13 14 15 13 12 12 12 12 11 13 12 13
Wind_Direction
188 185 182 182 179 178 178 171 170 159 155 150 140 127 114 108 106 101 93 93 91 92 91 87 83 72 74 71 56 58 57 70 98 83 76 67 53 44 40 32 36 42 51
187 186 186 181 182 184 180 178 175 166 162 159 149 141 124 117 113 113 112 107 96 93 93 92 89 86 75 68 65 74 72 68 106 106 108 72 48 43 33 23 32 40 46
185 186 184 183 185 186 182 179 179 173 170 169 164 157 145 137 130 129 130 121 112 108 106 99 93 99 98 91 81 75 75 76 90 150 110 73 39 36 18 24 35 32 33
183 187 188 188 187 185 181 178 180 180 180 178 173 167 161 155 153 150 145 137 129 122 115 106 95 96 93 105 101 93 91 98 105 127 129 130 59 5 328 353 9 20 12
185 189 192 189 185 183 176 178 178 178 183 180 175 172 167 167 162 172 169 165 157 146 141 132 97 64 35 28 24 101 128 165 163 167 156 242 26 330 336 329 334 330 354
189 192 190 187 181 181 180 179 178 179 182 179 182 179 175 169 123 128 249 184 177 170 162 152 138 136 111 99 50 25 344 267 243 232 237 270 319 331 328 311 315 311 321
192 192 188 187 184 185 182 179 180 182 181 183 188 187 187 160 146 170 241 226 201 196 190 179 166 149 177 155 150 177 179 330 301 283 273 287 292 310 296 300 309 312 312
193 193 191 190 187 183 181 183 188 188 184 189 193 193 192 172 160 177 207 221 213 207 207 206 197 191 185 209 214 211 212 213 249 259 274 290 299 297 289 294 298 293 288
194 195 192 191 188 184 186 189 190 189 190 194 197 198 198 189 171 181 204 213 221 220 218 222 224 222 137 220 235 231 235 242 226 251 304 303 318 298 283 273 277 282 288
197 197 193 191 190 191 193 193 189 189 193 194 197 205 207 207 174 185 212 216 225 225 225 225 218 239 178 211 234 240 247 252 254 236 238 241 249 244 241 257 272 279 287
194 194 191 191 193 193 192 190 188 189 191 197 200 207 213 215 186 188 209 225 228 232 230 230 220 192 215 226 247 252 262 269 260 260 262 261 258 258 251 252 262 270 278
183 186 188 189 189 187 186 188 191 191 193 199 205 209 215 212 211 199 206 225 246 237 240 240 225 185 211 225 234 246 255 255 257 258 259 260 262 264 263 262 262 261 265
178 182 185 185 186 186 186 186 189 193 201 206 208 214 215 213 206 201 207 216 228 238 246 248 231 197 213 225 227 231 235 245 252 256 259 262 265 268 269 266 266 264 266
180 183 185 185 185 186 189 192 194 197 204 211 214 218 219 213 214 209 213 218 217 232 246 231 214 217 229 245 234 228 237 244 249 255 262 266 267 264 261 262 264 265 266
181 180 183 186 187 190 192 201 208 208 210 211 216 218 219 223 216 202 208 216 219 223 229 233 234 232 233 236 240 240 240 241 243 251 257 261 262 261 261 260 261 266 268
181 180 181 182 185 190 194 198 204 230 210 218 234 237 232 234 198 189 207 218 215 207 219 234 237 238 240 242 242 243 242 244 246 249 252 255 257 259 261 260 259 262 268
184 180 179 183 185 190 197 204 210 209 211 223 226 231 239 237 216 207 210 215 210 200 224 238 242 243 245 246 247 248 249 249 249 250 252 255 257 259 261 262 262 263 267
175 167 175 183 192 197 203 212 219 225 230 237 220 217 224 228 225 218 208 207 223 218 234 240 243 245 247 248 249 250 252 253 251 252 254 256 257 259 260 261 262 265 269
146 150 160 172 184 195 203 213 222 231 241 249 251 211 207 221 218 212 200 224 235 236 237 242 246 248 249 250 251 251 252 254 254 253 255 256 257 258 260 262 265 266 266
123 106 125 158 171 183 197 211 226 237 245 250 254 259 227 222 235 224 220 234 242 246 247 248 250 252 253 253 253 252 253 254 255 254 256 256 256 257 260 263 265 266 265
115 120 133 151 167 196 218 233 242 250 257 262 265 260 246 248 249 248 243 241 244 249 252 254 255 255 254 255 255 254 254 256 256 256 257 257 258 259 261 262 263 264 265
112 118 134 156 198 237 254 252 258 266 269 273 278 263 222 249 260 260 257 254 252 253 255 256 257 256 256 254 254 254 254 256 257 257 258 260 259 260 261 261 262 261 261
88 89 89 69 331 268 276 286 285 281 280 279 280 279 269 264 264 265 266 267 266 263 259 257 259 261 260 258 256 255 256 257 259 263 264 264 263 261 261 260 261 262 260
72 73 27 323 290 282 285 292 293 288 286 286 284 282 280 277 274 274 274 274 272 269 266 263 261 260 260 261 261 259 258 263 270 270 267 265 265 264 261 260 260 260 260
34 18 335 306 299 296 295 296 295 294 293 292 292 291 290 287 284 282 280 278 277 275 274 271 268 267 267 266 266 264 265 265 265 269 272 266 264 263 263 262 260 260 258
14 359 341 329 319 312 304 301 302 303 301 300 298 296 295 293 291 289 286 283 282 280 278 276 273 274 274 272 272 272 270 265 261 261 266 269 265 262 262 261 261 259 261
Height
1571 1573 1575 1576 1577 1578 1579 1579 1580 1580 1580 1581 1581 1581 1581 1581 1580 1580 1580 1580 1580 1580 1579 1579 1579 1578 1578 1578 1577 1577 1577 1578 1577 1577 1576 1575 1573 1572 1571 1569 1568 1566 1565
1569 1571 1573 1575 1576 1577 1578 1579 1579 1580 1581 1581 1581 1582 1581 1581 1581 1581 1581 1580 1580 1580 1580 1580 1579 1579 1578 1578 1578 1578 1577 1577 1578 1577 1576 1575 1574 1572 1571 1569 1568 1567 1565
1567 1569 1571 1573 1574 1576 1577 1578 1579 1580 1580 1581 1581 1582 1582 1581 1581 1581 1581 1581 1581 1581 1580 1580 1580 1580 1579 1579 1578 1578 1578 1577 1577 1577 1576 1574 1574 1572 1571 1569 1568 1566 1565
1564 1567 1569 1571 1573 1574 1576 1577 1578 1579 1580 1581 1581 1581 1581 1581 1581 1581 1581 1581 1581 1581 1580 1580 1580 1580 1580 1579 1579 1578 1578 1577 1577 1577 1576 1575 1573 1572 1571 1570 1568 1567 1565
1561 1564 1567 1569 1571 1573 1574 1575 1577 1578 1579 1580 1580 1581 1581 1581 1581 1581 1581 1581 1581 1581 1580 1580 1580 1579 1579 1578 1578 1578 1577 1577 1577 1576 1576 1575 1574 1572 1571 1569 1568 1566 1564
1558 1561 1564 1567 1568 1570 1572 1574 1575 1576 1577 1578 1579 1579 1580 1580 1580 1580 1580 1580 1580 1580 1580 1579 1579 1578 1578 1577 1577 1576 1576 1576 1576 1576 1575 1574 1573 1572 1570 1568 1567 1566 1565
1555 1558 1561 1563 1565 1568 1570 1571 1573 1574 1576 1577 1577 1578 1579 1579 1579 1579 1579 1579 1579 1579 1579 1579 1578 1578 1577 1577 1576 1575 1575 1574 1574 1574 1574 1573 1572 1570 1569 1567 1566 1565 1563
1552 1555 1557 1560 1562 1564 1567 1569 1571 1572 1574 1575 1576 1577 1577 1577 1577 1578 1578 1578 1578 1578 1577 1577 1577 1577 1576 1575 1575 1574 1574 1573 1572 1572 1572 1571 1570 1568 1567 1566 1564 1562 1560
1548 1551 1553 1556 1559 1561 1563 1565 1568 1569 1571 1573 1574 1575 1575 1576 1576 1576 1576 1576 1576 1576 1576 1575 1575 1575 1574 1573 1573 1572 1572 1571 1570 1569 1568 1568 1566 1565 1564 1563 1561 1560 1559
1544 1547 1550 1553 1555 1557 1560 1562 1564 1566 1568 1570 1571 1572 1573 1573 1573 1574 1574 1574 1574 1574 1573 1573 1573 1572 1572 1571 1571 1570 1570 1569 1568 1567 1566 1565 1564 1563 1561 1560 1559 1558 1556
1541 1544 1546 1549 1551 1554 1556 1559 1561 1563 1565 1566 1567 1569 1569 1570 1570 1571 1571 1571 1571 1571 1571 1570 1570 1569 1569 1568 1568 1567 1567 1566 1565 1564 1563 1562 1561 1560 1558 1557 1555 1554 1553
1538 1540 1543 1545 1548 1550 1552 1555 1557 1559 1561 1562 1564 1565 1565 1566 1567 1567 1567 1568 1568 1568 1567 1567 1567 1566 1566 1565 1564 1564 1563 1563 1562 1561 1560 1558 1557 1556 1555 1553 1551 1550 1548
1535 1537 1539 1542 1544 1546 1549 1551 1553 1555 1556 1558 1559 1560 1561 1562 1562 1563 1563 1563 1563 1563 1563 1563 1563 1562 1562 1561 1560 1560 1559 1558 1558 1557 1556 1555 1554 1552 1550 1548 1546 1545 1543
1532 1534 1536 1538 1541 1543 1545 1547 1549 1550 1552 1553 1555 1556 1557 1557 1558 1558 1559 1559 1559 1559 1559 1558 1558 1558 1557 1556 1556 1555 1555 1554 1553 1552 1551 1550 1549 1547 1545 1543 1541 1540 1537
1530 1532 1533 1535 1537 1539 1541 1543 1545 1546 1548 1549 1550 1551 1552 1552 1553 1554 1554 1554 1554 1554 1554 1553 1553 1552 1552 1551 1551 1550 1549 1549 1548 1547 1546 1544 1543 1541 1540 1538 1536 1534 1533
1528 1529 1530 1532 1533 1535 1537 1539 1540 1542 1543 1544 1545 1546 1546 1547 1548 1548 1549 1549 1549 1549 1549 1548 1547 1547 1546 1545 1545 1544 1544 1543 1542 1541 1540 1538 1537 1536 1534 1533 1531 1529 1527
1525 1527 1528 1529 1530 1532 1533 1534 1536 1537 1538 1539 1539 1540 1541 1541 1542 1542 1543 1543 1543 1543 1542 1541 1541 1541 1540 1539 1539 1538 1537 1537 1536 1535 1533 1532 1531 1530 1528 1526 1525 1523 1520
1523 1524 1525 1526 1527 1528 1530 1531 1532 1533 1533 1533 1534 1534 1535 1536 1536 1536 1537 1537 1536 1536 1535 1535 1534 1534 1533 1533 1532 1531 1530 1530 1529 1528 1526 1525 1524 1523 1521 1519 1518 1516 1514
1521 1522 1523 1523 1524 1525 1526 1527 1528 1528 1529 1529 1529 1529 1530 1530 1530 1530 1530 1529 1529 1529 1528 1528 1527 1527 1526 1526 1525 1524 1523 1522 1521 1520 1519 1518 1517 1515 1513 1512 1510 1508 1506
1519 1520 1520 1521 1522 1522 1523 1523 1524 1524 1525 1524 1524 1524 1524 1524 1524 1524 1523 1523 1522 1522 1522 1521 1520 1520 1519 1518 1517 1516 1515 1514 1513 1512 1511 1510 1509 1507 1506 1504 1503 1501 1499
1517 1517 1518 1519 1519 1520 1520 1520 1520 1521 1521 1521 1520 1520 1519 1519 1519 1518 1518 1517 1516 1516 1515 1514 1513 1512 1512 1511 1510 1509 1508 1506 1505 1504 1503 1502 1500 1499 1497 1496 1494 1492 1490
1515 1515 1516 1516 1517 1517 1517 1517 1517 1517 1517 1517 1516 1515 1514 1514 1513 1513 1512 1511 1510 1509 1508 1507 1506 1505 1504 1503 1502 1501 1500 1498 1497 1496 1495 1494 1492 1490 1489 1487 1485 1484 1482
1513 1513 1514 1514 1514 1514 1514 1514 1514 1513 1513 1512 1512 1511 1510 1509 1508 1507 1506 1505 1504 1502 1501 1500 1499 1498 1497 1496 1494 1493 1492 1491 1490 1489 1487 1485 1483 1482 1480 1478 1477 1475 1473
1511 1511 1511 1511 1511 1511 1511 1511 1510 1510 1509 1508 1507 1506 1505 1504 1502 1501 1500 1498 1497 1496 1494 1493 1491 1490 1489 1488 1486 1485 1484 1483 1482 1480 1478 1476 1474 1472 1471 1469 1467 1466 1464
1509 1509 1509 1509 1508 1508 1508 1507 1507 1506 1505 1504 1503 1501 1500 1498 1497 1495 1493 1492 1490 1488 1487 1485 1484 1482 1481 1480 1478 1477 1476 1474 1473 1471 1469 1467 1465 1463 1462 1460 1458 1457 1456
1507 1506 1506 1506 1505 1505 1504 1503 1503 1502 1501 1499 1498 1496 1495 1493 1491 1489 1487 1485 1483 1481 1480 1478 1476 1475 1473 1472 1470 1469 1467 1466 1464 1463 1461 1458 1456 1454 1453 1451 1450 1448 1447